This demonstration page uses our WeatherBlox Daily Observations layout. Learn more.

Left ArrowRight Arrow

Hourly Observations for January 15, 2018

Temp ( °F °C ) Dew Point ( °F °C ) Humidity (%) Winds ( mph kmh ) Pressure ( in mb ) Visibility ( mi km ) Precip ( " mm )
12:54 am 00:54 Cloudy 21 -6 16 -9 80 80 N 24 39 30.48 1032 10 16 0.00 0.00
12:56 am 00:56 Cloudy 22 -5.6 15 -9.4 75 75 N 25 41 30.38 1029 10 16 0.00 0.00
1:37 am 01:37 Mostly Cloudy 19 -7 12 -11 73 73 N 21 33 30.48 1032 10 16 0.00 0.00
1:56 am 01:56 Mostly Cloudy 18 -7.8 12 -11.1 77 77 N 20 31 30.42 1030 10 16 0.00 0.00
2:41 am 02:41 Partly Cloudy 16 -9 9 -13 73 73 N 23 37 30.53 1034 10 16 0.00 0.00
2:56 am 02:56 Clear 14 -10 8 -13.3 77 77 N 25 41 30.45 1031 10 16 0.00 0.00
4:56 am 04:56 Clear 7 -13.9 0 -17.8 73 73 NNW 20 31 30.53 1034 10 16 0.00 0.00
5:56 am 05:56 Clear 5 -15 -3 -19.4 69 69 NNW 21 33 30.57 1035 10 16 0.00 0.00
6:56 am 06:56 Mostly Clear 3 -16.1 -4 -20 72 72 NNW 20 31 30.61 1037 10 16 0.00 0.00
7:56 am 07:56 Clear 1 -17.2 -5 -20.6 75 75 NNW 14 22 30.64 1038 10 16 0.00 0.00
8:56 am 08:56 Sunny 1 -17.2 -5 -20.6 75 75 NNW 13 20 30.68 1039 10 16 0.00 0.00
10:56 am 10:56 Cloudy 3 -16.1 -5 -20.6 69 69 NNW 22 35 30.72 1040 10 16 0.00 0.00
11:56 am 11:56 Mostly Cloudy 4 -15.6 -5 -20.6 66 66 NNW 26 43 30.72 1040 10 16 0.00 0.00
12:56 pm 12:56 Cloudy 4 -15.6 -5 -20.6 66 66 NNW 24 39 30.72 1040 10 16 0.00 0.00
1:56 pm 13:56 Cloudy 4 -15.6 -5 -20.6 66 66 NNW 22 35 30.72 1040 10 16 0.00 0.00
2:56 pm 14:56 Mostly Cloudy 5 -15 -5 -20.6 63 63 NNW 24 39 30.73 1041 10 16 0.00 0.00
3:13 pm 15:13 Partly Cloudy 5 -15 -6 -21 60 60 N 21 33 30.83 1044 10 16 0.00 0.00
3:56 pm 15:56 Sunny 5 -15 -4 -20 66 66 NNW 16 26 30.75 1041 10 16 0.00 0.00
4:56 pm 16:56 Sunny 5 -15 -5 -20.6 63 63 NNW 23 37 30.76 1042 10 16 0.00 0.00
5:56 pm 17:56 Clear 3 -16.1 -6 -21.1 66 66 NNW 18 30 30.78 1042 10 16 0.00 0.00
6:56 pm 18:56 Mostly Clear 2 -16.7 -6 -21.1 69 69 NNW 13 20 30.81 1043 10 16 0.00 0.00
7:56 pm 19:56 Mostly Clear 2 -16.7 -6 -21.1 69 69 NNW 16 26 30.82 1044 10 16 0.00 0.00
8:56 pm 20:56 Clear 1 -17.2 -7 -21.7 68 68 NNW 18 30 30.83 1044 10 16 0.00 0.00
9:56 pm 21:56 Clear 1 -17.2 -8 -22.2 65 65 N 21 33 30.83 1044 10 16 0.00 0.00
10:56 pm 22:56 Clear 0 -17.8 -8 -22.2 69 69 N 17 28 30.86 1045 10 16 0.00 0.00
11:56 pm 23:56 Clear -1 -18.3 -9 -22.8 68 68 NNW 16 26 30.86 1045 10 16 0.00 0.00

Powered by AerisWeather